[[{"header":{"parameterUnit":"m.s-1","parameterCategory":2,"la1":30.2991,"la2":30.254,"lo1":-89.0895,"lo2":-89.0444,"dy":0.0017,"dx":0.0017,"nx":28,"ny":28,"refTime":"2024-02-14T03:00:00:Z","depth":"0","parameterNumber":2,"parameterNumberName":"U-component_of_CURRENTS"},"data":[0,0,0,0,0,0,0,0,0,0,0,0,0,0,0,0,0,0,0,0,0,0,0,0,0,0,0,0,0,0,0,0,0,0,0,0,0,0,0,0,0,0,0,0,0,0,0,0,0,0,0,0,0,0,0,0,0,0,-0.3228,-0.3227,0,-0.3123,-0.3121,-0.312,-0.3084,-0.3085,-0.3085,-0.3086,-0.3148,-0.3149,-0.315,0,0,0,0,0,0,0,0,0,0,0,0,0,-0.327,-0.327,-0.3228,-0.3227,-0.3226,-0.3123,-0.3121,-0.3119,-0.3084,-0.3085,-0.3086,-0.3086,-0.3148,-0.3149,-0.315,0,0,0,0,0,0,0,0,0,0,0,0,0,-0.3214,-0.327,-0.3229,-0.3198,-0.3195,-0.3123,-0.3121,-0.3119,-0.3084,-0.3085,-0.3086,-0.3087,-0.3148,-0.3149,-0.315,-0.3138,0,0,-0.3155,-0.3156,0,0,0,0,0,0,0,0,-0.3218,-0.3212,-0.3204,-0.32,-0.3196,-0.312,-0.3159,-0.3135,-0.3083,-0.3122,-0.3086,-0.3087,-0.3156,-0.3157,-0.3127,-0.3141,-0.3144,-0.3155,-0.3156,-0.3157,-0.3157,0,0,0,0,0,0,0,-0.3222,-0.3216,-0.3183,-0.3203,-0.3198,-0.3146,-0.314,-0.3152,-0.3135,-0.3119,-0.3117,-0.311,-0.3155,-0.3126,-0.3129,-0.3145,-0.3155,-0.3156,-0.3157,-0.3158,-0.3095,-0.3093,0,0,0,0,0,0,-0.3247,-0.322,-0.3187,-0.318,-0.3213,-0.3145,-0.3138,-0.3141,-0.3131,-0.313,-0.3109,-0.3109,-0.3123,-0.3128,-0.3132,-0.3126,-0.3157,-0.3158,-0.3159,-0.3098,-0.3095,-0.3092,0,0,0,0,0,0,-0.3248,-0.3245,-0.3191,-0.32,-0.319,-0.3145,-0.3147,-0.3139,-0.3114,-0.3122,-0.3124,-0.3095,-0.3124,-0.313,-0.3103,-0.3128,-0.3159,-0.316,-0.3101,-0.3097,-0.3093,-0.311,0,0,0,0,0,0,-0.325,-0.3246,-0.3245,-0.3202,-0.319,-0.3158,-0.3146,-0.3136,-0.311,-0.3108,-0.3111,-0.3117,-0.3125,-0.31,-0.3104,-0.3131,-0.3161,-0.3104,-0.3099,-0.3095,-0.3112,-0.3107,-0.3102,0,0,0,0,0,-0.3252,-0.3246,-0.3246,-0.3241,-0.3195,-0.3158,-0.3147,-0.3115,-0.3108,-0.3097,-0.3066,-0.3117,-0.3074,-0.3098,-0.3104,-0.3133,-0.3106,-0.3101,-0.3095,-0.3115,-0.3108,-0.3102,0,0,0,0,0,0,-0.3245,-0.3241,-0.324,-0.323,-0.3204,-0.3154,-0.3134,-0.3115,-0.3077,-0.3079,-0.308,-0.3082,-0.307,-0.3075,-0.3102,-0.3089,-0.3101,-0.3096,-0.3114,-0.3108,-0.3103,-0.3146,-0.3162,0,0,0,0,0,-0.325,-0.3256,-0.3234,-0.3223,-0.3216,-0.3175,-0.3153,-0.3138,-0.3103,-0.3087,-0.3082,-0.3066,-0.3047,-0.3056,-0.3041,-0.304,-0.3044,-0.3055,-0.305,-0.3047,-0.3077,-0.3033,-0.3029,-0.3073,-0.3073,-0.3073,0,0,-0.3242,-0.324,-0.3241,-0.3223,-0.3199,-0.3193,-0.3164,-0.3139,-0.3134,-0.3104,-0.3086,-0.3052,-0.3034,-0.3018,-0.3017,-0.3034,-0.3035,-0.3039,-0.3037,-0.307,-0.3027,-0.3023,-0.302,-0.3069,-0.307,-0.3071,0,0,-0.3234,-0.3233,-0.324,-0.3231,-0.3212,-0.3194,-0.3193,-0.3153,-0.3138,-0.3108,-0.3074,-0.3034,-0.3027,-0.3003,-0.2994,-0.2949,-0.2999,-0.2955,-0.2991,-0.2946,-0.2944,-0.2942,-0.2956,-0.2955,-0.2967,-0.2967,-0.2967,0,-0.3229,-0.3236,-0.3228,-0.3235,-0.3229,-0.3204,-0.3205,-0.3184,-0.3137,-0.3119,-0.3113,-0.3034,-0.3022,-0.2991,-0.2973,-0.2949,-0.2949,-0.3027,-0.2946,-0.2943,-0.2941,-0.2956,-0.2955,-0.2967,-0.2967,-0.2967,-0.2967,0,-0.3229,-0.3239,-0.3237,-0.3253,-0.3244,-0.3237,-0.3226,-0.3209,-0.319,-0.3162,-0.3117,-0.3061,-0.302,-0.3005,-0.2988,-0.2963,-0.2977,-0.2938,-0.2978,-0.2939,-0.2955,-0.2954,-0.2967,-0.2967,-0.2967,-0.2967,0,0,-0.32,-0.3239,-0.3235,-0.3251,-0.3257,-0.3245,-0.325,-0.323,-0.3222,-0.3181,-0.3161,-0.31,-0.3064,-0.3048,-0.3009,-0.2985,-0.2966,-0.2974,-0.2971,-0.3021,-0.2918,-0.2846,-0.2838,-0.2916,-0.2915,-0.2915,-0.2943,0,-0.32,-0.3229,-0.3245,-0.326,-0.327,-0.327,-0.3271,-0.3254,-0.3234,-0.321,-0.3157,-0.3116,-0.3085,-0.3058,-0.3028,-0.2974,-0.2961,-0.2966,-0.2922,-0.2922,-0.2887,-0.2832,-0.2639,-0.264,-0.2942,-0.2942,-0.2942,0,-0.3184,-0.3209,-0.3238,-0.327,-0.3273,-0.328,-0.3275,-0.3274,-0.3249,-0.323,-0.3193,-0.3155,-0.3116,-0.3082,-0.3015,-0.3023,-0.2986,-0.2951,-0.2949,-0.2883,-0.2845,-0.2719,-0.2626,-0.2599,-0.294,-0.294,-0.294,0,-0.3148,-0.3193,-0.322,-0.3232,-0.3267,-0.3272,-0.328,-0.3267,-0.3249,-0.3239,-0.3226,-0.3179,-0.3151,-0.3091,-0.304,-0.3022,-0.2985,-0.2932,-0.2841,-0.2839,-0.2668,-0.265,-0.2569,-0.2886,-0.2886,-0.2886,-0.2886,0,-0.3131,-0.314,-0.3207,-0.3215,-0.3216,-0.3259,-0.3245,-0.3245,-0.3246,-0.3208,-0.3227,-0.3201,-0.3149,-0.3123,-0.3067,-0.2968,-0.2998,-0.2856,-0.2826,-0.2666,-0.2648,-0.2612,-0.2645,-0.2887,-0.2886,-0.2886,-0.2886,0,-0.3057,-0.3121,-0.3127,-0.3179,-0.3195,-0.318,-0.3201,-0.3181,-0.322,-0.3181,-0.3177,-0.3209,-0.3158,-0.3127,-0.305,-0.2987,-0.2838,-0.2867,-0.2722,-0.2672,-0.2507,-0.2548,-0.2485,-0.2422,-0.274,-0.2738,-0.2737,0,-0.3013,-0.3022,-0.3063,-0.3056,-0.3072,-0.3081,-0.3071,-0.3127,-0.3102,-0.3162,-0.3124,-0.3138,-0.3048,-0.2978,-0.2869,-0.276,-0.2768,-0.2579,-0.2474,-0.2478,-0.2502,-0.2538,-0.2493,-0.2271,-0.2265,-0.2261,-0.2258,0,-0.2884,-0.2903,-0.2904,-0.2893,-0.2891,-0.2879,-0.2884,-0.2863,-0.2916,-0.2911,-0.2875,-0.2833,-0.2803,-0.2607,-0.2557,-0.2475,-0.2482,-0.2484,-0.2489,-0.2134,-0.2166,-0.2095,-0.2342,-0.2219,-0.2223,-0.2226,-0.2228,-0.2229,-0.2733,-0.269,-0.2683,-0.2665,-0.2667,-0.2602,-0.2521,-0.2547,-0.2477,-0.2413,-0.2536,-0.2442,-0.2406,-0.2252,-0.2205,-0.2075,-0.2172,-0.1976,-0.2036,-0.2084,-0.1972,-0.2176,-0.2011,-0.2013,-0.2015,-0.2017,-0.2019,0,-0.2495,-0.2475,-0.2447,-0.2388,-0.2323,-0.2389,-0.2321,-0.2216,-0.2071,-0.2114,-0.2036,-0.1978,-0.1817,-0.1844,-0.1735,-0.1652,-0.1614,-0.1649,-0.1633,-0.1613,-0.1757,-0.1681,-0.1434,-0.1434,-0.1434,-0.1434,-0.1434,-0.1434,-0.2345,-0.2243,-0.2244,-0.205,-0.2022,-0.1841,-0.1756,-0.1645,-0.1613,-0.15,-0.1512,-0.1574,-0.1619,-0.1682,-0.1552,-0.1469,-0.1468,-0.1398,-0.1516,-0.1598,-0.1633,-0.1666,-0.1599,-0.1338,-0.1338,-0.1242,-0.1241,-0.1241]},{"header":{"parameterUnit":"m.s-1","parameterCategory":2,"la1":30.2991,"la2":30.254,"lo1":-89.0895,"lo2":-89.0444,"dy":0.0017,"dx":0.0017,"nx":28,"ny":28,"refTime":"2024-02-14T03:00:00:Z","depth":"0","parameterNumber":3,"parameterNumberName":"V-component_of_CURRENTS"},"data":[0,0,0,0,0,0,0,0,0,0,0,0,0,0,0,0,0,0,0,0,0,0,0,0,0,0,0,0,0,0,0,0,0,0,0,0,0,0,0,0,0,0,0,0,0,0,0,0,0,0,0,0,0,0,0,0,0,0,-0.0568,-0.0568,0,-0.0517,-0.0516,-0.0516,-0.0477,-0.0477,-0.0477,-0.0476,-0.0171,-0.0164,-0.0156,0,0,0,0,0,0,0,0,0,0,0,0,0,-0.0614,-0.0613,-0.0568,-0.0568,-0.0567,-0.0517,-0.0516,-0.0516,-0.0477,-0.0477,-0.0476,-0.0476,-0.0174,-0.0165,-0.0156,0,0,0,0,0,0,0,0,0,0,0,0,0,-0.0582,-0.0613,-0.0569,-0.0541,-0.0538,-0.0517,-0.0516,-0.0516,-0.0478,-0.0477,-0.0476,-0.0476,-0.0177,-0.0166,-0.0154,-0.0095,0,0,-0.0119,-0.0114,0,0,0,0,0,0,0,0,-0.0584,-0.058,-0.0546,-0.0543,-0.054,-0.0502,-0.0421,-0.0362,-0.0478,-0.0501,-0.0476,-0.0475,-0.0259,-0.024,-0.0237,-0.008,-0.0067,-0.0118,-0.0111,-0.0106,-0.0103,0,0,0,0,0,0,0,-0.0586,-0.0582,-0.0549,-0.0545,-0.0542,-0.0525,-0.052,-0.0411,-0.038,-0.0499,-0.0496,-0.049,-0.0255,-0.0248,-0.0228,-0.0063,-0.0118,-0.0108,-0.0101,-0.0096,0.0123,0.0122,0,0,0,0,0,0,-0.0593,-0.0584,-0.055,-0.0547,-0.056,-0.0525,-0.0519,-0.0516,-0.0386,-0.0368,-0.049,-0.0488,-0.0268,-0.0242,-0.0217,-0.0139,-0.0106,-0.0095,-0.0088,0.0124,0.0123,0.0121,0,0,0,0,0,0,-0.0594,-0.0591,-0.0552,-0.0564,-0.0558,-0.0525,-0.0521,-0.0515,-0.05,-0.0382,-0.0359,-0.0481,-0.0267,-0.0233,-0.0154,-0.0126,-0.009,-0.0079,0.0125,0.0124,0.0122,0.0021,0,0,0,0,0,0,-0.0596,-0.0591,-0.0591,-0.0565,-0.0557,-0.0533,-0.0521,-0.0514,-0.0497,-0.0494,-0.0365,-0.0338,-0.0264,-0.0173,-0.0143,-0.0109,-0.007,0.0127,0.0125,0.0123,0.0025,0.0016,0.0007,0,0,0,0,0,-0.0598,-0.0597,-0.0591,-0.0587,-0.0558,-0.0533,-0.0528,-0.0502,-0.0497,-0.0488,-0.0435,-0.0342,-0.0164,-0.0165,-0.0129,-0.0091,0.0128,0.0125,0.0123,0.003,0.0018,0.0008,0,0,0,0,0,0,-0.0614,-0.0592,-0.0585,-0.0578,-0.0555,-0.0526,-0.0515,-0.0503,-0.0459,-0.0451,-0.0352,-0.0321,-0.0241,-0.0165,-0.0168,-0.0042,-0.0002,0.0002,-0.0085,-0.0095,-0.0104,-0.0073,-0.0061,0,0,0,0,0,-0.062,-0.0613,-0.0588,-0.0581,-0.057,-0.0545,-0.0532,-0.0517,-0.0477,-0.0458,-0.0382,-0.0301,-0.0226,-0.0164,-0.0086,-0.0003,0.0064,0.0039,0.003,0.0022,0.0066,0.0133,0.0135,0.0113,0.0113,0.0113,0,0,-0.0625,-0.0611,-0.0608,-0.0584,-0.0565,-0.0551,-0.0535,-0.0516,-0.0498,-0.0423,-0.0375,-0.0322,-0.0218,-0.015,-0.0103,-0.0075,0.0054,0.0018,0.0011,0.0061,0.0131,0.0134,0.0136,0.0111,0.0111,0.0112,0,0,-0.063,-0.0618,-0.0614,-0.0599,-0.0573,-0.0554,-0.0549,-0.0521,-0.0499,-0.0455,-0.0412,-0.0353,-0.023,-0.0164,-0.011,-0.0113,-0.0006,-0.0092,-0.0086,-0.0024,-0.0021,-0.0017,0.0034,0.0044,-0.0086,-0.0086,-0.0086,0,-0.0638,-0.0631,-0.0608,-0.0601,-0.0591,-0.0557,-0.0552,-0.0521,-0.0475,-0.0446,-0.0443,-0.0306,-0.0227,-0.0132,-0.015,-0.0122,-0.0082,-0.0055,-0.0034,-0.0028,-0.0022,0.003,0.0042,-0.0091,-0.009,-0.009,-0.0089,0,-0.064,-0.0636,-0.063,-0.0612,-0.0596,-0.0584,-0.0545,-0.0516,-0.049,-0.0459,-0.0379,-0.0309,-0.0219,-0.0202,-0.0165,-0.0088,-0.0075,-0.0066,-0.0003,-0.0025,0.0029,0.0043,-0.0098,-0.0097,-0.0095,-0.0094,0,0,-0.0658,-0.0637,-0.0637,-0.0636,-0.0604,-0.0592,-0.0549,-0.0499,-0.0467,-0.0413,-0.0363,-0.0265,-0.0235,-0.0173,-0.0131,-0.0071,-0.0024,-0.0053,-0.0048,0.0004,0.0105,0.0165,0.0187,-0.0022,-0.0019,-0.0017,0.0112,0,-0.0668,-0.067,-0.0649,-0.0644,-0.0644,-0.0598,-0.0562,-0.0511,-0.0462,-0.0405,-0.0314,-0.0256,-0.0221,-0.0195,-0.0127,-0.0052,0.0016,-0.0059,0.0117,0.0124,0.0185,0.0207,0.0197,0.0318,0.0127,0.0129,0.0131,0,-0.0681,-0.0682,-0.0688,-0.0666,-0.0659,-0.0647,-0.0586,-0.0549,-0.045,-0.0411,-0.0326,-0.0267,-0.0161,-0.0149,0.002,-0.0037,0.0045,0.0104,0.011,0.0232,0.0213,0.0317,0.0352,0.0507,0.0154,0.0152,0.0151,0,-0.0721,-0.0709,-0.0718,-0.0714,-0.0679,-0.0662,-0.0634,-0.0555,-0.0522,-0.0419,-0.0391,-0.0255,-0.0199,-0.0071,0.0066,0.0037,0.0249,0.0219,0.0362,0.0365,0.0435,0.0442,0.066,0.0365,0.0364,0.0364,0.0364,0,-0.0751,-0.0755,-0.074,-0.0748,-0.0745,-0.0706,-0.0682,-0.0626,-0.0555,-0.0523,-0.0407,-0.0349,-0.0178,-0.0042,0.0079,0.0282,0.0267,0.0402,0.0422,0.0393,0.0394,0.0596,0.0646,0.0369,0.0368,0.0367,0.0366,0,-0.0788,-0.0784,-0.0793,-0.0772,-0.077,-0.0769,-0.0739,-0.0721,-0.0643,-0.0598,-0.0572,-0.0413,-0.023,-0.0038,0.0177,0.0297,0.0576,0.0554,0.051,0.0525,0.0789,0.0831,0.1098,0.1196,0.0727,0.073,0.0732,0,-0.0799,-0.0811,-0.0821,-0.0846,-0.0842,-0.0838,-0.0841,-0.0777,-0.0765,-0.0639,-0.0628,-0.0432,-0.0294,0.0069,0.0325,0.0591,0.07,0.0747,0.0712,0.0852,0.0913,0.093,0.0993,0.0739,0.0741,0.0743,0.0744,0,-0.0806,-0.0816,-0.0828,-0.0893,-0.0921,-0.0936,-0.0937,-0.0941,-0.0863,-0.0813,-0.0708,-0.0583,-0.0214,0.0109,0.0492,0.0636,0.0853,0.079,0.0953,0.0987,0.1005,0.109,0.0592,0.0759,0.0757,0.0756,0.0755,0.0755,-0.0793,-0.0819,-0.0857,-0.0916,-0.097,-0.1019,-0.1025,-0.1023,-0.0996,-0.0892,-0.0779,-0.0546,-0.0063,0.0476,0.0667,0.106,0.1011,0.114,0.1189,0.1202,0.129,0.0838,0.1017,0.1017,0.1017,0.1017,0.1017,0,-0.0741,-0.0798,-0.0875,-0.0952,-0.1035,-0.1045,-0.1075,-0.1065,-0.104,-0.09,-0.0772,-0.023,0.023,0.0691,0.1236,0.144,0.1466,0.1532,0.1547,0.1601,0.122,0.1215,0.1424,0.1424,0.1424,0.1424,0.1423,0.1423,-0.0717,-0.076,-0.0826,-0.0972,-0.1048,-0.1108,-0.1118,-0.1099,-0.0997,-0.0728,-0.0415,-0.0147,0.049,0.1305,0.1783,0.1811,0.1992,0.1943,0.2084,0.1797,0.1763,0.173,0.1742,0.2058,0.2059,0.2423,0.2426,0.2429]}],[{"header":{"parameterUnit":"m.s-1","parameterCategory":2,"la1":30.2991,"la2":30.254,"lo1":-89.0895,"lo2":-89.0444,"dy":0.0017,"dx":0.0017,"nx":28,"ny":28,"refTime":"2024-02-14T03:00:00:Z","depth":"2","parameterNumber":2,"parameterNumberName":"U-component_of_CURRENTS"},"data":[0,0,0,0,0,0,0,0,0,0,0,0,0,0,0,0,0,0,0,0,0,0,0,0,0,0,0,0,0,0,0,0,0,0,0,0,0,0,0,0,0,0,0,0,0,0,0,0,0,0,0,0,0,0,0,0,0,0,-0.2047,-0.2047,0,-0.2093,-0.2094,-0.2095,-0.2119,-0.2118,-0.2118,-0.2117,-0.2248,-0.2252,-0.2256,0,0,0,0,0,0,0,0,0,0,0,0,0,-0.2058,-0.2058,-0.2047,-0.2047,-0.2048,-0.2093,-0.2094,-0.2095,-0.2119,-0.2118,-0.2118,-0.2117,-0.2247,-0.2252,-0.2256,0,0,0,0,0,0,0,0,0,0,0,0,0,-0.2078,-0.2057,-0.2047,-0.2061,-0.2062,-0.2092,-0.2094,-0.2095,-0.2119,-0.2118,-0.2118,-0.2117,-0.2246,-0.2251,-0.2257,-0.2306,0,0,-0.2275,-0.2277,0,0,0,0,0,0,0,0,-0.2077,-0.2078,-0.2059,-0.206,-0.2062,-0.2095,-0.2145,-0.2168,-0.2119,-0.2103,-0.2117,-0.2117,-0.2202,-0.2212,-0.2228,-0.2312,-0.2318,-0.2275,-0.2279,-0.2281,-0.2283,0,0,0,0,0,0,0,-0.2075,-0.2077,-0.2071,-0.2059,-0.2061,-0.2091,-0.2093,-0.215,-0.2161,-0.2104,-0.2105,-0.2102,-0.2204,-0.2222,-0.2231,-0.2319,-0.2275,-0.228,-0.2284,-0.2286,-0.244,-0.244,0,0,0,0,0,0,-0.2056,-0.2075,-0.2069,-0.2071,-0.2062,-0.2091,-0.2093,-0.2089,-0.2159,-0.2166,-0.2102,-0.2103,-0.2212,-0.2224,-0.2236,-0.2327,-0.2281,-0.2287,-0.229,-0.2439,-0.244,-0.244,0,0,0,0,0,0,-0.2056,-0.2055,-0.2067,-0.207,-0.2073,-0.209,-0.2086,-0.209,-0.2114,-0.2155,-0.2166,-0.2121,-0.2212,-0.2228,-0.2312,-0.2331,-0.2289,-0.2295,-0.2438,-0.2439,-0.244,-0.249,0,0,0,0,0,0,-0.2056,-0.2055,-0.2077,-0.2069,-0.2072,-0.2107,-0.2086,-0.2091,-0.211,-0.2111,-0.2175,-0.2186,-0.2213,-0.2303,-0.2317,-0.2338,-0.2299,-0.2438,-0.2439,-0.244,-0.2488,-0.2493,-0.2497,0,0,0,0,0,-0.2056,-0.2079,-0.2078,-0.2079,-0.2091,-0.2108,-0.2115,-0.2127,-0.2111,-0.2142,-0.2183,-0.2184,-0.2318,-0.231,-0.2326,-0.2349,-0.2437,-0.2439,-0.244,-0.2486,-0.2492,-0.2497,0,0,0,0,0,0,-0.2099,-0.2082,-0.2081,-0.21,-0.2112,-0.211,-0.2146,-0.2133,-0.2187,-0.2205,-0.2221,-0.2237,-0.231,-0.2323,-0.2312,-0.239,-0.2366,-0.2371,-0.2395,-0.2402,-0.2406,-0.2398,-0.2304,0,0,0,0,0,-0.2115,-0.2124,-0.2117,-0.2135,-0.2148,-0.2147,-0.2162,-0.217,-0.2197,-0.2218,-0.2258,-0.2295,-0.2327,-0.236,-0.2406,-0.2469,-0.2457,-0.2482,-0.2486,-0.249,-0.2492,-0.2475,-0.2478,-0.2445,-0.2445,-0.2445,0,0,-0.2129,-0.2127,-0.213,-0.2145,-0.2161,-0.2199,-0.2157,-0.2195,-0.2228,-0.2229,-0.2315,-0.233,-0.2348,-0.2416,-0.2446,-0.2432,-0.2499,-0.2492,-0.2496,-0.2495,-0.2477,-0.248,-0.2483,-0.2446,-0.2446,-0.2445,0,0,-0.2168,-0.217,-0.2201,-0.2221,-0.2252,-0.2257,-0.2264,-0.2287,-0.2307,-0.2373,-0.2371,-0.2397,-0.2467,-0.2477,-0.2484,-0.2539,-0.2525,-0.2544,-0.2569,-0.2553,-0.2556,-0.2558,-0.257,-0.2573,-0.2544,-0.2544,-0.2544,0,-0.2198,-0.2224,-0.2216,-0.2263,-0.2271,-0.228,-0.2313,-0.2353,-0.2402,-0.2419,-0.2413,-0.2468,-0.2487,-0.2523,-0.2535,-0.255,-0.2547,-0.2551,-0.2559,-0.2561,-0.2562,-0.2574,-0.2576,-0.2547,-0.2546,-0.2546,-0.2546,0,-0.2256,-0.2295,-0.2319,-0.2368,-0.238,-0.2421,-0.2443,-0.2483,-0.2488,-0.2516,-0.2559,-0.2574,-0.2588,-0.2589,-0.2582,-0.2597,-0.2596,-0.2569,-0.2546,-0.2568,-0.258,-0.2581,-0.255,-0.255,-0.2549,-0.2548,0,0,-0.224,-0.2344,-0.2344,-0.2376,-0.2433,-0.2433,-0.2499,-0.2537,-0.2565,-0.262,-0.2642,-0.2668,-0.2661,-0.2664,-0.2649,-0.2632,-0.264,-0.2606,-0.2604,-0.2621,-0.2629,-0.248,-0.2467,-0.2613,-0.2613,-0.2613,-0.2643,0,-0.2284,-0.2381,-0.2402,-0.2465,-0.2506,-0.2515,-0.2553,-0.2593,-0.263,-0.2686,-0.269,-0.2735,-0.2697,-0.2695,-0.2675,-0.2648,-0.2643,-0.2636,-0.2603,-0.2603,-0.2467,-0.2462,-0.2292,-0.2289,-0.2644,-0.2644,-0.2644,0,-0.2293,-0.2365,-0.2438,-0.2487,-0.2497,-0.2524,-0.2532,-0.2586,-0.2673,-0.2696,-0.2739,-0.278,-0.2791,-0.2743,-0.2708,-0.2706,-0.2675,-0.2647,-0.2647,-0.2486,-0.2453,-0.2318,-0.2278,-0.2646,-0.2646,-0.2646,-0.2646,0,-0.2222,-0.2345,-0.2394,-0.2422,-0.251,-0.2499,-0.2523,-0.2582,-0.2615,-0.2725,-0.2756,-0.2802,-0.2805,-0.2775,-0.2723,-0.2724,-0.2672,-0.2668,-0.2516,-0.2508,-0.2342,-0.2316,-0.2644,-0.2644,-0.2644,-0.2644,-0.2644,0,-0.2209,-0.2248,-0.2371,-0.2393,-0.2423,-0.2466,-0.2483,-0.2525,-0.2596,-0.2633,-0.2759,-0.2759,-0.2806,-0.2797,-0.275,-0.2616,-0.269,-0.2515,-0.249,-0.2355,-0.2331,-0.2618,-0.2615,-0.2645,-0.2645,-0.2644,-0.2644,0,-0.2118,-0.2217,-0.2269,-0.2361,-0.2391,-0.2391,-0.2444,-0.2463,-0.2546,-0.259,-0.2629,-0.2735,-0.2691,-0.2721,-0.2675,-0.2617,-0.2534,-0.2476,-0.2327,-0.228,-0.2394,-0.2393,-0.2332,-0.2326,-0.2322,-0.2318,-0.2315,0,-0.2102,-0.2124,-0.2214,-0.2229,-0.2271,-0.2308,-0.2324,-0.2414,-0.2429,-0.2524,-0.2521,-0.2571,-0.2535,-0.2454,-0.2374,-0.2296,-0.2379,-0.2105,-0.2052,-0.2372,-0.2356,-0.2362,-0.2367,-0.1888,-0.1882,-0.1877,-0.1872,0,-0.2061,-0.2069,-0.2093,-0.2112,-0.2129,-0.2169,-0.2197,-0.2209,-0.2294,-0.2331,-0.2324,-0.2327,-0.2275,-0.2108,-0.2039,-0.1966,-0.2105,-0.1989,-0.2356,-0.1966,-0.1947,-0.1933,-0.1955,-0.1826,-0.183,-0.1834,-0.1836,-0.1838,-0.1983,-0.1963,-0.1962,-0.1967,-0.1977,-0.1974,-0.1939,-0.1982,-0.1981,-0.1979,-0.205,-0.1977,-0.199,-0.1754,-0.1654,-0.1601,-0.1742,-0.1691,-0.1711,-0.1736,-0.1651,-0.1621,-0.1427,-0.1429,-0.1431,-0.1433,-0.1434,0,-0.1925,-0.1892,-0.184,-0.1794,-0.1715,-0.1799,-0.1806,-0.1748,-0.1688,-0.1716,-0.1681,-0.1504,-0.1386,-0.139,-0.1231,-0.1208,-0.1247,-0.1156,-0.1216,-0.1262,-0.1303,-0.12,-0.0854,-0.0852,-0.0851,-0.0849,0,0,-0.1887,-0.1808,-0.176,-0.1575,-0.1519,-0.1401,-0.1374,-0.1339,-0.1322,-0.1249,-0.1208,-0.1285,-0.1333,-0.1083,-0.1034,-0.0912,-0.1081,-0.0867,-0.1331,-0.1445,-0.1484,-0.1605,-0.1495,0,0,0,0,0]},{"header":{"parameterUnit":"m.s-1","parameterCategory":2,"la1":30.2991,"la2":30.254,"lo1":-89.0895,"lo2":-89.0444,"dy":0.0017,"dx":0.0017,"nx":28,"ny":28,"refTime":"2024-02-14T03:00:00:Z","depth":"2","parameterNumber":3,"parameterNumberName":"V-component_of_CURRENTS"},"data":[0,0,0,0,0,0,0,0,0,0,0,0,0,0,0,0,0,0,0,0,0,0,0,0,0,0,0,0,0,0,0,0,0,0,0,0,0,0,0,0,0,0,0,0,0,0,0,0,0,0,0,0,0,0,0,0,0,0,-0.0049,-0.0049,0,-0.0024,-0.0024,-0.0023,0.0007,0.0008,0.0008,0.0008,0.0061,0.0062,0.0063,0,0,0,0,0,0,0,0,0,0,0,0,0,-0.0051,-0.0051,-0.0049,-0.0049,-0.0048,-0.0024,-0.0024,-0.0023,0.0007,0.0008,0.0008,0.0008,0.006,0.0062,0.0063,0,0,0,0,0,0,0,0,0,0,0,0,0,-0.0038,-0.0051,-0.0049,-0.0032,-0.0031,-0.0024,-0.0024,-0.0023,0.0007,0.0008,0.0008,0.0008,0.006,0.0062,0.0063,0.0066,0,0,0.0069,0.0069,0,0,0,0,0,0,0,0,-0.0039,-0.0038,-0.0035,-0.0033,-0.0032,-0.0013,-0.0005,0.0007,0.0007,-0.0005,0.0008,0.0009,0.0037,0.0041,0.0047,0.0068,0.0071,0.0069,0.007,0.0071,0.0071,0,0,0,0,0,0,0,-0.004,-0.0039,-0.0037,-0.0035,-0.0033,-0.002,-0.0017,-0.0002,0.0016,-0.0004,-0.0002,-0.0003,0.0038,0.0045,0.0049,0.0071,0.0069,0.007,0.0071,0.0072,0.0122,0.0122,0,0,0,0,0,0,-0.0049,-0.004,-0.0037,-0.0036,-0.0037,-0.002,-0.0017,-0.0017,0.0015,0.002,-0.0003,-0.0002,0.0042,0.0047,0.0051,0.0063,0.0071,0.0072,0.0073,0.0122,0.0122,0.0122,0,0,0,0,0,0,-0.0049,-0.0049,-0.0038,-0.0039,-0.0037,-0.0021,-0.0021,-0.0017,-0.0008,0.0015,0.002,0.0002,0.0043,0.0048,0.0071,0.0065,0.0073,0.0075,0.0121,0.0122,0.0122,0.0083,0,0,0,0,0,0,-0.0049,-0.0049,-0.0048,-0.004,-0.0038,-0.0038,-0.0021,-0.0017,-0.0011,-0.0008,0.0021,0.0026,0.0044,0.0069,0.0073,0.0068,0.0076,0.0121,0.0122,0.0122,0.0084,0.0082,0.008,0,0,0,0,0,-0.0049,-0.0057,-0.0049,-0.0048,-0.0038,-0.0038,-0.0036,-0.0021,-0.0011,-0.001,0.0016,0.0025,0.0075,0.007,0.0075,0.007,0.0121,0.0121,0.0122,0.0085,0.0082,0.0081,0,0,0,0,0,0,-0.0059,-0.0054,-0.0045,-0.005,-0.0044,-0.0034,-0.0034,-0.0023,-0.0002,0.0005,0.0029,0.0036,0.0054,0.0071,0.0065,0.0088,0.0099,0.0101,0.0069,0.0067,0.0065,0.0046,0.0077,0,0,0,0,0,-0.0062,-0.0067,-0.0056,-0.0063,-0.0059,-0.0045,-0.0042,-0.0031,-0.0015,-0.0005,0.0013,0.0038,0.006,0.007,0.0091,0.0102,0.0138,0.0104,0.0102,0.01,0.0089,0.0148,0.0151,0.0125,0.0125,0.0125,0,0,-0.0074,-0.0068,-0.0074,-0.0066,-0.0059,-0.0066,-0.0042,-0.0039,-0.004,-0.0003,0.0004,0.0032,0.0063,0.0078,0.0087,0.0091,0.013,0.0101,0.0099,0.0089,0.0149,0.0152,0.0154,0.0125,0.0125,0.0125,0,0,-0.011,-0.009,-0.0108,-0.0104,-0.0094,-0.0079,-0.008,-0.0066,-0.005,-0.0041,-0.0009,0.002,0.0038,0.0068,0.0083,0.0086,0.012,0.0088,0.006,0.0117,0.012,0.0122,0.0183,0.0191,0.0085,0.0085,0.0085,0,-0.0124,-0.0143,-0.0115,-0.013,-0.0136,-0.0089,-0.0114,-0.0087,-0.0067,-0.0053,-0.0046,0.0006,0.0034,0.0064,0.0062,0.0081,0.0117,0.0063,0.0114,0.0118,0.0121,0.0182,0.0192,0.0083,0.0083,0.0084,0.0084,0,-0.0176,-0.0188,-0.0198,-0.02,-0.0197,-0.0207,-0.0174,-0.0157,-0.0133,-0.0104,-0.007,-0.0025,0.0006,0.002,0.0036,0.0071,0.0092,0.0106,0.0116,0.0121,0.0186,0.0196,0.0081,0.0081,0.0082,0.0082,0,0,-0.0225,-0.0235,-0.0239,-0.026,-0.0237,-0.0246,-0.023,-0.0206,-0.019,-0.015,-0.0129,-0.0086,-0.0046,-0.0026,0.0012,0.0054,0.0114,0.0077,0.0081,0.0131,0.0243,0.0215,0.0225,0.0135,0.0136,0.0137,0.0283,0,-0.0279,-0.0332,-0.0313,-0.0361,-0.0388,-0.034,-0.0334,-0.0296,-0.0245,-0.0201,-0.0127,-0.0089,-0.0064,-0.0047,0.0001,0.0085,0.0138,0.0073,0.0236,0.024,0.021,0.0234,0.0221,0.0344,0.0293,0.0295,0.0296,0,-0.0342,-0.0369,-0.0431,-0.0453,-0.0458,-0.0465,-0.0441,-0.0427,-0.033,-0.0292,-0.0222,-0.0146,-0.007,-0.0049,0.0095,0.005,0.0136,0.0203,0.0211,0.0201,0.0232,0.033,0.0366,0.0315,0.0313,0.0312,0.0311,0,-0.0414,-0.0454,-0.0509,-0.0518,-0.0524,-0.0534,-0.0523,-0.0454,-0.0436,-0.0331,-0.0298,-0.0183,-0.0126,-0.0009,0.0129,0.0116,0.0294,0.0306,0.0371,0.0371,0.0398,0.0397,0.0415,0.0414,0.0414,0.0414,0.0413,0,-0.0489,-0.0532,-0.0547,-0.058,-0.0631,-0.0606,-0.0619,-0.0583,-0.0514,-0.0484,-0.0348,-0.0303,-0.0118,0.0013,0.0134,0.0281,0.0309,0.0367,0.0404,0.0384,0.038,0.0378,0.0372,0.0419,0.0418,0.0417,0.0416,0,-0.0564,-0.0576,-0.0641,-0.0663,-0.0671,-0.0706,-0.0697,-0.069,-0.062,-0.0574,-0.0543,-0.038,-0.0223,-0.0027,0.0182,0.0278,0.0431,0.048,0.0442,0.0468,0.0472,0.0462,0.0568,0.0569,0.0569,0.0569,0.0569,0,-0.0608,-0.065,-0.0707,-0.074,-0.0752,-0.0785,-0.0796,-0.0753,-0.0734,-0.063,-0.061,-0.0441,-0.0309,-0.0007,0.0203,0.0438,0.0442,0.0542,0.0504,0.0462,0.0487,0.0477,0.0467,0.0548,0.0548,0.0547,0.0547,0,-0.0683,-0.0699,-0.0746,-0.0815,-0.085,-0.0885,-0.0893,-0.0899,-0.0832,-0.0777,-0.0676,-0.0559,-0.0271,-0.0013,0.0278,0.0399,0.0499,0.0543,0.0546,0.0481,0.0446,0.0468,0.046,0.0547,0.0547,0.0547,0.0547,0.0547,-0.0722,-0.0766,-0.0819,-0.0884,-0.0924,-0.0958,-0.0973,-0.0957,-0.0931,-0.0819,-0.0723,-0.0516,-0.027,0.0141,0.0337,0.0512,0.0498,0.0559,0.0558,0.0558,0.05,0.0463,0.0559,0.0559,0.0559,0.0559,0.0559,0,-0.0765,-0.0813,-0.0877,-0.0942,-0.0986,-0.0995,-0.1012,-0.0997,-0.0957,-0.0819,-0.0686,-0.0403,-0.0107,0.0136,0.0418,0.0575,0.0581,0.0588,0.0582,0.0581,0.058,0.0522,0.0589,0.0589,0.059,0.059,0,0,-0.0793,-0.0856,-0.0889,-0.0975,-0.1011,-0.1039,-0.1042,-0.1011,-0.0914,-0.0778,-0.0609,-0.0369,-0.0078,0.0132,0.0333,0.0474,0.0483,0.0478,0.0438,0.0406,0.0404,0.0544,0.0451,0,0,0,0,0]}],[{"header":{"parameterUnit":"m.s-1","parameterCategory":2,"la1":30.2991,"la2":30.254,"lo1":-89.0895,"lo2":-89.0444,"dy":0.0017,"dx":0.0017,"nx":28,"ny":28,"refTime":"2024-02-14T03:00:00:Z","depth":"4","parameterNumber":2,"parameterNumberName":"U-component_of_CURRENTS"},"data":[0,0,0,0,0,0,0,0,0,0,0,0,0,0,0,0,0,0,0,0,0,0,0,0,0,0,0,0,0,0,0,0,0,0,0,0,0,0,0,0,0,0,0,0,0,0,0,0,0,0,0,0,0,0,0,0,0,0,-0.1039,-0.104,0,-0.1125,-0.1126,-0.1127,-0.1169,-0.117,-0.117,-0.117,-0.1172,-0.1171,-0.1171,0,0,0,0,0,0,0,0,0,0,0,0,0,-0.0939,-0.094,-0.1039,-0.104,-0.1042,-0.1125,-0.1126,-0.1127,-0.1169,-0.117,-0.117,-0.117,-0.1172,-0.1171,-0.1171,0,0,0,0,0,0,0,0,0,0,0,0,0,-0.0998,-0.0941,-0.1039,-0.1074,-0.1079,-0.1125,-0.1126,-0.1127,-0.1169,-0.117,-0.117,-0.117,-0.1172,-0.1171,-0.1171,-0.1164,0,0,-0.1171,-0.1171,0,0,0,0,0,0,0,0,-0.0994,-0.1001,-0.1068,-0.1072,-0.1077,-0.1139,-0.1092,-0.1136,-0.1169,-0.1133,-0.117,-0.117,-0.1154,-0.1155,-0.1169,-0.1164,-0.1164,-0.1171,-0.117,-0.117,-0.117,0,0,0,0,0,0,0,-0.099,-0.0998,-0.1071,-0.1069,-0.1075,-0.1096,-0.1104,-0.1101,-0.1137,-0.1136,-0.114,-0.1153,-0.1155,-0.1169,-0.1169,-0.1164,-0.1171,-0.117,-0.117,-0.117,-0.1209,-0.121,0,0,0,0,0,0,-0.0982,-0.0994,-0.1068,-0.1074,-0.1038,-0.1097,-0.1106,-0.1117,-0.1139,-0.1145,-0.1152,-0.1154,-0.1169,-0.1169,-0.1169,-0.122,-0.117,-0.117,-0.117,-0.1208,-0.1209,-0.1211,0,0,0,0,0,0,-0.0979,-0.0988,-0.1065,-0.1037,-0.1049,-0.1099,-0.111,-0.1118,-0.1153,-0.1153,-0.1156,-0.1181,-0.117,-0.1169,-0.1196,-0.1218,-0.117,-0.117,-0.1207,-0.1208,-0.121,-0.1283,0,0,0,0,0,0,-0.0976,-0.0986,-0.0997,-0.1037,-0.105,-0.1104,-0.1111,-0.112,-0.1161,-0.1165,-0.1178,-0.1178,-0.117,-0.1196,-0.1196,-0.1217,-0.117,-0.1205,-0.1207,-0.1209,-0.128,-0.1287,-0.1294,0,0,0,0,0,-0.0972,-0.0983,-0.0997,-0.1007,-0.1062,-0.1105,-0.1114,-0.1149,-0.1162,-0.1181,-0.12,-0.1179,-0.1209,-0.1198,-0.1196,-0.1218,-0.1204,-0.1207,-0.1209,-0.1276,-0.1286,-0.1294,0,0,0,0,0,0,-0.0949,-0.099,-0.1006,-0.103,-0.1071,-0.1114,-0.1137,-0.1161,-0.1193,-0.1202,-0.1198,-0.1199,-0.1232,-0.1213,-0.1201,-0.1235,-0.1201,-0.1203,-0.1252,-0.1261,-0.1268,-0.1268,-0.117,0,0,0,0,0,-0.0948,-0.0964,-0.1012,-0.1032,-0.1055,-0.11,-0.1125,-0.1154,-0.1185,-0.1202,-0.1209,-0.1219,-0.1238,-0.1242,-0.125,-0.1265,-0.1249,-0.1276,-0.1284,-0.129,-0.1289,-0.1299,-0.1307,-0.1219,-0.1219,-0.1219,0,0,-0.0947,-0.097,-0.0982,-0.1029,-0.1063,-0.1104,-0.1116,-0.1164,-0.1198,-0.1193,-0.1234,-0.1249,-0.1251,-0.128,-0.129,-0.1268,-0.1308,-0.1294,-0.1299,-0.1294,-0.1303,-0.1311,-0.1319,-0.1221,-0.1221,-0.122,0,0,-0.0944,-0.0974,-0.0987,-0.1028,-0.1085,-0.1118,-0.1137,-0.119,-0.1214,-0.1258,-0.127,-0.1304,-0.1314,-0.1331,-0.1338,-0.1387,-0.1353,-0.1384,-0.1414,-0.1424,-0.1432,-0.1438,-0.1431,-0.1436,-0.1379,-0.138,-0.138,0,-0.0945,-0.0967,-0.1,-0.1033,-0.1076,-0.1126,-0.1169,-0.1201,-0.1255,-0.1275,-0.1277,-0.1328,-0.1341,-0.1379,-0.1409,-0.1405,-0.1395,-0.1383,-0.1434,-0.144,-0.1445,-0.1436,-0.1441,-0.1383,-0.1383,-0.1383,-0.1382,0,-0.0957,-0.0986,-0.1003,-0.106,-0.1111,-0.1156,-0.1216,-0.1255,-0.1291,-0.1318,-0.1365,-0.1388,-0.1416,-0.143,-0.1442,-0.1485,-0.1463,-0.145,-0.1413,-0.1459,-0.1446,-0.145,-0.1389,-0.1388,-0.1386,-0.1385,0,0,-0.0931,-0.0996,-0.1006,-0.1038,-0.1135,-0.1175,-0.1241,-0.1305,-0.1346,-0.1379,-0.1416,-0.147,-0.148,-0.149,-0.1502,-0.1518,-0.1567,-0.1507,-0.1505,-0.15,-0.1578,-0.1495,-0.149,-0.1563,-0.1564,-0.1565,-0.1555,0,-0.0934,-0.0989,-0.1027,-0.1097,-0.1143,-0.1217,-0.1282,-0.135,-0.1393,-0.1435,-0.1455,-0.15,-0.15,-0.1531,-0.1547,-0.1577,-0.1578,-0.1569,-0.1533,-0.1531,-0.1453,-0.1492,-0.1568,-0.1558,-0.1558,-0.1559,-0.1559,0,-0.0946,-0.0978,-0.105,-0.1132,-0.1161,-0.122,-0.1336,-0.1395,-0.1468,-0.1502,-0.1533,-0.154,-0.159,-0.1574,-0.1611,-0.1605,-0.1597,-0.1598,-0.1597,-0.1493,-0.1454,-0.1501,-0.1565,-0.1564,-0.1564,-0.1564,-0.1563,0,-0.0935,-0.0997,-0.1054,-0.109,-0.1195,-0.1247,-0.1318,-0.1423,-0.147,-0.1547,-0.1573,-0.1609,-0.1636,-0.1639,-0.1642,-0.1639,-0.1653,-0.1645,-0.1544,-0.1537,-0.1582,-0.1575,-0.1642,-0.1642,-0.1642,-0.1642,-0.1642,0,-0.0937,-0.0965,-0.1053,-0.1088,-0.1163,-0.1258,-0.1341,-0.1422,-0.1513,-0.1568,-0.1606,-0.1626,-0.1656,-0.1653,-0.165,-0.1606,-0.1656,-0.1552,-0.1533,-0.1613,-0.161,-0.1584,-0.1577,-0.1642,-0.1642,-0.1642,-0.1642,0,-0.0904,-0.0962,-0.1022,-0.113,-0.1166,-0.1234,-0.1347,-0.1396,-0.1507,-0.1575,-0.1601,-0.1651,-0.1669,-0.1654,-0.1665,-0.1609,-0.1586,-0.1543,-0.1622,-0.1607,-0.1459,-0.1457,-0.1446,-0.1443,-0.144,-0.1438,-0.1436,0,-0.0885,-0.0921,-0.1045,-0.108,-0.1123,-0.1213,-0.1278,-0.1399,-0.1454,-0.1578,-0.1603,-0.1632,-0.1648,-0.1574,-0.159,-0.1546,-0.1519,-0.1488,-0.1482,-0.1458,-0.1441,-0.1442,-0.1443,-0.1432,-0.1432,-0.1431,-0.1431,0,-0.083,-0.0894,-0.0942,-0.1035,-0.1102,-0.116,-0.1261,-0.1294,-0.1441,-0.152,-0.1564,-0.155,-0.1545,-0.1527,-0.1482,-0.1455,-0.1513,-0.1462,-0.1467,-0.1461,-0.1442,-0.1428,-0.1431,-0.1422,-0.1423,-0.1424,-0.1424,0,-0.0789,-0.0805,-0.0891,-0.095,-0.1039,-0.1099,-0.1161,-0.1229,-0.13,-0.1457,-0.1465,-0.1499,-0.155,-0.1478,-0.1454,-0.1409,-0.1391,-0.1347,-0.1358,-0.1367,-0.1343,-0.1307,-0.1231,0,0,0,0,0,-0.0735,-0.0722,-0.0781,-0.0856,-0.0951,-0.0996,-0.1139,-0.1207,-0.1343,-0.1351,-0.1414,-0.1413,-0.1381,-0.139,-0.1322,-0.1402,-0.1383,-0.1318,-0.1336,-0.1374,-0.1384,-0.1361,0,0,0,0,0,0,-0.0688,-0.072,-0.0736,-0.0763,-0.0792,-0.0884,-0.0976,-0.108,-0.1104,-0.1238,-0.1222,-0.131,-0.1284,-0.1372,-0.1275,-0.1279,-0.1264,-0.1345,-0.1342,-0.1368,-0.1377,-0.1385,-0.1365,0,0,0,0,0]},{"header":{"parameterUnit":"m.s-1","parameterCategory":2,"la1":30.2991,"la2":30.254,"lo1":-89.0895,"lo2":-89.0444,"dy":0.0017,"dx":0.0017,"nx":28,"ny":28,"refTime":"2024-02-14T03:00:00:Z","depth":"4","parameterNumber":3,"parameterNumberName":"V-component_of_CURRENTS"},"data":[0,0,0,0,0,0,0,0,0,0,0,0,0,0,0,0,0,0,0,0,0,0,0,0,0,0,0,0,0,0,0,0,0,0,0,0,0,0,0,0,0,0,0,0,0,0,0,0,0,0,0,0,0,0,0,0,0,0,-0.0192,-0.0192,0,-0.0177,-0.0176,-0.0176,-0.015,-0.015,-0.0149,-0.0149,-0.0107,-0.0106,-0.0105,0,0,0,0,0,0,0,0,0,0,0,0,0,-0.0185,-0.0185,-0.0192,-0.0192,-0.0191,-0.0177,-0.0176,-0.0176,-0.015,-0.015,-0.0149,-0.0149,-0.0107,-0.0106,-0.0105,0,0,0,0,0,0,0,0,0,0,0,0,0,-0.018,-0.0185,-0.0192,-0.0177,-0.0176,-0.0177,-0.0176,-0.0176,-0.0151,-0.015,-0.0149,-0.0149,-0.0107,-0.0106,-0.0105,-0.0112,0,0,-0.0102,-0.0101,0,0,0,0,0,0,0,0,-0.0181,-0.0181,-0.0179,-0.0178,-0.0176,-0.0165,-0.0158,-0.0153,-0.0151,-0.016,-0.0149,-0.0148,-0.0124,-0.0122,-0.012,-0.011,-0.0108,-0.0102,-0.0101,-0.0101,-0.01,0,0,0,0,0,0,0,-0.0181,-0.0181,-0.0185,-0.0179,-0.0177,-0.0166,-0.0165,-0.0157,-0.0145,-0.0159,-0.0157,-0.0156,-0.0123,-0.0122,-0.0119,-0.0108,-0.0102,-0.0101,-0.01,-0.01,-0.0091,-0.0092,0,0,0,0,0,0,-0.0185,-0.0182,-0.0186,-0.0185,-0.0177,-0.0167,-0.0166,-0.0169,-0.0146,-0.0142,-0.0157,-0.0155,-0.0124,-0.012,-0.0118,-0.0116,-0.0101,-0.01,-0.0099,-0.0091,-0.0091,-0.0092,0,0,0,0,0,0,-0.0185,-0.0186,-0.0187,-0.0183,-0.0182,-0.0168,-0.0172,-0.0169,-0.0164,-0.0145,-0.014,-0.0154,-0.0123,-0.0119,-0.0109,-0.0115,-0.0099,-0.0098,-0.009,-0.0091,-0.0092,-0.0119,0,0,0,0,0,0,-0.0185,-0.0186,-0.0192,-0.0183,-0.0182,-0.0191,-0.0173,-0.0169,-0.0165,-0.0162,-0.0141,-0.0136,-0.0122,-0.0111,-0.0108,-0.0113,-0.0097,-0.009,-0.0091,-0.0091,-0.0117,-0.012,-0.0123,0,0,0,0,0,-0.0185,-0.02,-0.0192,-0.0193,-0.019,-0.0192,-0.0191,-0.0178,-0.0165,-0.0169,-0.0151,-0.0137,-0.0114,-0.0111,-0.0107,-0.0112,-0.009,-0.0091,-0.0091,-0.0116,-0.012,-0.0123,0,0,0,0,0,0,-0.0199,-0.0198,-0.019,-0.0203,-0.0198,-0.0188,-0.0192,-0.018,-0.0169,-0.0165,-0.0141,-0.0136,-0.0129,-0.0119,-0.0116,-0.0112,-0.01,-0.01,-0.012,-0.0123,-0.0126,-0.0135,-0.0097,0,0,0,0,0,-0.0205,-0.0215,-0.0208,-0.0217,-0.0217,-0.0203,-0.0202,-0.0193,-0.0182,-0.0177,-0.0163,-0.0147,-0.0132,-0.0126,-0.0115,-0.0115,-0.0089,-0.0116,-0.0119,-0.0121,-0.0127,-0.0084,-0.0083,-0.0095,-0.0095,-0.0095,0,0,-0.0213,-0.0213,-0.0218,-0.022,-0.0215,-0.0225,-0.0201,-0.0203,-0.0211,-0.0174,-0.0181,-0.0156,-0.0134,-0.013,-0.0127,-0.0122,-0.0105,-0.0122,-0.0124,-0.0129,-0.0085,-0.0083,-0.0082,-0.0096,-0.0095,-0.0095,0,0,-0.0238,-0.0233,-0.0252,-0.0253,-0.025,-0.0241,-0.0242,-0.0235,-0.0232,-0.0232,-0.0204,-0.0181,-0.0172,-0.0151,-0.0139,-0.0151,-0.0118,-0.015,-0.0172,-0.0131,-0.0129,-0.0127,-0.0093,-0.0088,-0.0153,-0.0153,-0.0153,0,-0.0246,-0.0269,-0.0256,-0.0275,-0.0279,-0.0251,-0.0269,-0.0266,-0.0256,-0.0253,-0.0241,-0.0205,-0.0182,-0.0164,-0.0166,-0.0157,-0.013,-0.0161,-0.0133,-0.0131,-0.0129,-0.0094,-0.0088,-0.0155,-0.0155,-0.0154,-0.0154,0,-0.0285,-0.0304,-0.0315,-0.0328,-0.0328,-0.034,-0.033,-0.0329,-0.0314,-0.0304,-0.0287,-0.0251,-0.0226,-0.0214,-0.0193,-0.0168,-0.0154,-0.0138,-0.0123,-0.0129,-0.0092,-0.0086,-0.0157,-0.0156,-0.0156,-0.0155,0,0,-0.0299,-0.0337,-0.0341,-0.036,-0.0358,-0.0364,-0.0371,-0.0369,-0.0371,-0.0352,-0.0349,-0.031,-0.0279,-0.0263,-0.0227,-0.0191,-0.0145,-0.0162,-0.0159,-0.0126,-0.0056,-0.0051,-0.0043,-0.0121,-0.012,-0.0119,-0.0036,0,-0.0332,-0.0384,-0.0388,-0.0427,-0.0448,-0.0429,-0.0439,-0.0429,-0.0412,-0.0404,-0.0356,-0.0339,-0.0302,-0.0281,-0.024,-0.0164,-0.013,-0.017,-0.0058,-0.0055,-0.0048,-0.0036,-0.0116,-0.0031,-0.003,-0.0028,-0.0028,0,-0.0364,-0.0396,-0.0445,-0.0479,-0.0485,-0.0502,-0.0499,-0.0507,-0.048,-0.0464,-0.0428,-0.0389,-0.033,-0.0301,-0.0181,-0.0206,-0.0139,-0.0083,-0.0078,-0.0062,-0.0038,-0.0024,-0.0015,-0.0016,-0.0017,-0.0018,-0.0019,0,-0.0374,-0.0432,-0.0473,-0.0486,-0.0517,-0.0532,-0.0541,-0.0524,-0.0529,-0.0498,-0.0482,-0.0415,-0.0372,-0.028,-0.0165,-0.0165,-0.0036,-0.0018,0.0043,0.0045,0.0028,0.0025,0.0056,0.0056,0.0055,0.0055,0.0055,0,-0.0399,-0.0437,-0.0488,-0.0512,-0.056,-0.0564,-0.0591,-0.0589,-0.0575,-0.0571,-0.0514,-0.0481,-0.0363,-0.0276,-0.0174,-0.0044,-0.0038,0.0041,0.0068,0.0014,0.0009,0.0033,0.0029,0.0058,0.0058,0.0057,0.0057,0,-0.0405,-0.044,-0.0496,-0.0547,-0.0569,-0.0601,-0.0637,-0.0647,-0.0627,-0.0615,-0.0604,-0.0521,-0.0395,-0.0281,-0.0124,-0.0055,0.0067,0.0105,0.0031,0.0052,0.0122,0.0115,0.0193,0.0194,0.0195,0.0195,0.0196,0,-0.0416,-0.0443,-0.0521,-0.0558,-0.0591,-0.0638,-0.0664,-0.0673,-0.0676,-0.0629,-0.0618,-0.0513,-0.044,-0.0214,-0.0101,0.008,0.01,0.015,0.0142,0.0118,0.0137,0.0129,0.0122,0.0197,0.0197,0.0197,0.0198,0,-0.0431,-0.0457,-0.0501,-0.0579,-0.063,-0.068,-0.0718,-0.0722,-0.071,-0.0693,-0.0599,-0.0487,-0.0354,-0.0196,-0.0068,0.0061,0.0115,0.0159,0.0158,0.0151,0.0124,0.014,0.0132,0.02,0.02,0.02,0.0199,0,-0.0434,-0.0467,-0.0523,-0.0587,-0.0657,-0.0703,-0.0726,-0.0712,-0.071,-0.0649,-0.0616,-0.047,-0.039,-0.0206,-0.0081,0.0039,0.0074,0.0106,0.0109,0.0107,0.0053,0.0004,0.0069,0,0,0,0,0,-0.0431,-0.0462,-0.0526,-0.0601,-0.0672,-0.071,-0.0748,-0.0754,-0.074,-0.0669,-0.0638,-0.0504,-0.0303,-0.022,-0.0093,-0.0082,0.0074,0.0067,0.0107,0.0215,0.0212,0.0162,0,0,0,0,0,0,-0.0435,-0.0484,-0.0516,-0.0597,-0.0646,-0.0721,-0.0745,-0.074,-0.0692,-0.0654,-0.054,-0.0476,-0.028,-0.0363,-0.0087,-0.0054,-0.0014,0.0162,0.0165,0.0216,0.0214,0.0211,0.0159,0,0,0,0,0]}]]